STARLINK-36434, 67322

Orbit data source: Space-Track

STARLINK-36434, 67322 is a payload satellite owned by SpaceX/Seattle (US) in LEO that was launched on Sun, 04 Jan 2026 UTC via an FALCON 9 launch vehicle from the Air Force Eastern Test Range (AFETR). Payload-class satellites include a variety of spacecraft equipped with specific instruments for various scientific and technological missions. These include communications satellites like Starlink; space stations such as the ISS; scientific satellites like the Hubble; Earth observation satellites from companies like Planet Labs, Umbra, and HawkEye 360; GPS; miniature CubeSats for education and research; and military/defense satellites.

Loading next visibility...
Identifier
67322, 2026-002T
Orbit
LEO
Country
Flag of USUS
Related business
Manufacturer
SpaceX/Seattle
Mission
Operational Commercial Communications
Bus & Motor
STARLINK V2MO, Unknown motor
Mass
575 kg wet, ~530 kg dry
Launch date (UTC)
2026-01-04 (2 months ago)
Launch vehicle
FALCON 9
Launch site
Air Force Eastern Test Range (AFETR)
Object type
Payload
Rocket body
Debris
Shape & HBR
Box + 2 Pan, 17.7 m
Radar Cross Section
36.964 m²

Expand to show TLE details & history
Last TLE update: 7 hours ago

TLE from 7 hours ago
0 STARLINK-36434
1 67322U 26002T   26062.85868836  .00062604  00000-0  22632-2 0  9993
2 67322  43.0035 358.4993 0001247 259.3489 100.7222 15.27610599 10181
Epoch: 2026-03-03T20:36Z
TLE epoch observation values (Epoch: 2026-03-03T20:36:30.674Z)
Latitude
-0.00003°
Longitude
-112.26025°
Altitude
482.893 km
Speed
7.626 km/s
True Right ascension
23h 53m 59s
True Declination
0° 00' 00"
Sunlit
Object was in daylight at epoch
Visualization orbit readout
Latitude
Unknown
Longitude
Unknown
Altitude
Unknown
Speed
Unknown
Apparent Right ascension
Unknown
Apparent Declination
Unknown
Sunlit
N/A
Visualization observer readout
Local Sidereal Time
07:39:04
Azimuth
Unknown
Elevation
Unknown
Doppler factor
Unknown
Orbital elements
Apogee altitude
485.758 km
Perigee altitude
484.046 km
Semi-major axis
6,863.039 km
Eccentricity
0.00012
Inclination
43.0035°
RAAN
358.4993°
Arg. of periapsis
259.3489°
True anomaly
100.73624°
Mean anomaly
100.7222°
Eccentric anomaly
100.72922°
Mean motion
3.81741 °/min
Orbital period
94.3 mins
BSTAR
0.0022632
Loading maneuver chart data...
Computing Atmospheric mass density...
Loading historical data...
Loading historical data...
Loading historical data...
Loading historical data...
Loading historical data...
Loading historical data...
Loading historical data...

Documentation

Showing up to 5 results
|